DateTime,F1_A11,F1_S11,BsB_S11,BsG_S11,BsR_S11,BbsB_S11,BbsG_S11,BbsR_S11,BaB_A11,BaG_A11,BaR_A11,T_S11,U_S11,P_S11,T1_A11
2016-01-26T00:00:00Z,0000380,21000600,,,,,,,,,,25.8,00.0,0626.5,34.5
2016-01-26T00:01:00Z,0000380,21000600,,,,,,,,,,25.8,00.0,0626.5,34.5
2016-01-26T00:02:00Z,0000380,21000600,,,,,,,,,,25.8,00.0,0626.5,34.5
2016-01-26T00:03:00Z,0000380,61000600,,,,,,,,,,25.9,00.0,0626.5,34.5
2016-01-26T00:04:00Z,0000380,41000600,-001.58,0000.55,0000.86,-000.22,0000.00,-000.10,0000.25,-000.02,0000.01,26.0,00.0,0627.2,34.5
2016-01-26T00:05:00Z,0000380,01000600,0000.36,0000.63,-000.50,0000.32,-000.25,0000.15,-000.15,0000.03,-000.01,26.0,00.0,0627.2,34.5
2016-01-26T00:06:00Z,0000380,01000600,0000.22,0000.34,-000.20,-000.19,0000.20,-000.19,-000.03,0000.18,0000.23,26.0,00.0,0627.2,34.5
2016-01-26T00:07:00Z,0000380,01000600,0000.16,-000.29,0000.11,-000.74,-000.13,-000.27,0000.28,-000.11,-000.02,26.0,00.0,0627.2,34.5
2016-01-26T00:08:00Z,0000380,01000600,0000.26,0000.21,0000.04,-000.25,0000.07,-000.07,-000.27,-000.02,-000.20,26.0,00.0,0627.2,34.5
2016-01-26T00:09:00Z,0000380,01000600,-000.11,-000.67,0000.22,-000.20,-000.08,0000.22,0000.22,0000.09,0000.30,26.0,00.0,0627.1,34.5
2016-01-26T00:10:00Z,0000380,01000600,-000.25,0000.17,-000.26,-000.12,0000.15,0000.12,-000.21,-000.03,-000.20,26.0,00.0,0627.1,34.5
2016-01-26T00:11:00Z,0000380,01000600,0000.77,-000.12,0000.46,-000.05,-000.44,-000.02,-000.00,0000.18,0000.07,26.0,00.0,0627.1,34.5
2016-01-26T00:12:00Z,0000380,01000600,-000.11,0000.40,0000.35,0000.45,-000.13,-000.08,0000.13,0000.00,-000.05,26.0,00.0,0627.1,34.5
2016-01-26T00:13:00Z,0000380,01000600,-000.17,0000.48,-000.15,-000.10,-000.12,0000.03,0000.21,-000.01,-000.04,26.0,00.0,0627.1,34.5
2016-01-26T00:14:00Z,0000380,01000600,0001.20,0000.23,-000.39,0000.03,-000.28,0000.37,-000.07,-000.12,0000.32,26.0,00.0,0627.0,34.5
2016-01-26T00:15:00Z,0000380,01000600,0000.73,0000.02,-000.42,-000.66,-000.45,-000.10,0000.03,-000.17,-000.29,26.0,00.0,0627.1,34.5
2016-01-26T00:16:00Z,0000380,01000600,0000.42,0000.10,-000.20,0000.03,0000.12,0000.19,-000.07,0000.24,-000.08,26.0,00.0,0627.0,34.5
2016-01-26T00:17:00Z,0000380,01000600,-000.18,0000.41,-000.02,-000.19,-000.52,0000.24,0000.17,-000.01,-000.04,26.0,00.0,0627.0,34.5
2016-01-26T00:18:00Z,0000380,01000600,-000.06,0000.12,0000.43,-000.07,-000.28,-000.08,0000.19,0000.17,0000.31,26.0,00.0,0627.0,34.5
2016-01-26T00:19:00Z,0000380,01000600,0000.00,-000.04,-000.06,0000.02,-000.03,-000.22,-000.18,0000.04,-000.11,26.0,00.0,0627.0,34.5
2016-01-26T00:20:00Z,0000380,01000600,0000.49,0000.67,-000.06,-000.37,-000.42,-000.05,0000.25,-000.12,-000.09,26.0,00.0,0627.0,34.5
2016-01-26T00:21:00Z,0000380,01000600,-001.14,0000.63,-000.22,0000.13,-000.13,-000.03,-000.10,0000.14,0000.32,26.0,00.0,0627.0,34.5
2016-01-26T00:22:00Z,0000380,01000600,0001.02,-000.21,0000.06,0000.37,0000.13,0000.00,-000.11,-000.05,-000.23,26.0,00.0,0627.0,34.5
2016-01-26T00:23:00Z,0000380,01000600,0000.55,-000.08,-000.31,-000.35,-000.07,0000.22,0000.09,0000.02,0000.25,26.0,00.0,0627.0,34.5
2016-01-26T00:24:00Z,0000380,01000600,-000.43,-000.28,0000.22,-000.12,0000.35,0000.34,-000.12,0000.13,-000.15,26.0,00.0,0627.0,34.5
2016-01-26T00:25:00Z,0000380,01000600,0000.56,0000.75,0000.04,0000.00,0000.12,-000.07,0000.16,-000.17,0000.03,26.0,00.0,0627.0,34.5
2016-01-26T00:26:00Z,0000380,01000600,0000.38,0001.38,-000.11,-000.42,-000.18,-000.13,-000.03,0000.01,-000.02,26.0,00.0,0627.0,34.5
2016-01-26T00:27:00Z,0000380,01000600,0000.27,0000.47,0000.03,-000.19,-000.30,-000.17,-000.11,-000.03,-000.32,26.0,00.0,0627.0,34.5
2016-01-26T00:28:00Z,0000380,01000600,0000.05,-000.09,-000.75,0000.13,-000.27,-000.13,0000.17,0000.13,0000.54,26.0,00.0,0627.0,34.5
2016-01-26T00:29:00Z,0000380,01000600,-000.43,0000.28,0000.17,0000.32,-000.30,-000.35,0000.15,-000.18,-000.03,26.0,00.0,0626.9,34.5
2016-01-26T00:30:00Z,0000380,01000600,-000.79,-000.28,-000.15,-000.39,0000.12,0000.22,0000.02,0000.04,-000.08,26.0,00.0,0626.9,34.5
2016-01-26T00:31:00Z,0000380,01000600,-000.06,-000.04,0000.21,0000.29,0000.13,-000.08,-000.02,0000.11,-000.14,26.0,00.0,0626.9,34.5
2016-01-26T00:32:00Z,0000380,01000600,-000.12,0000.34,0000.36,0000.37,0000.00,0000.17,0000.12,0000.06,0000.26,26.0,00.0,0626.9,34.5
2016-01-26T00:33:00Z,0000380,01000600,0000.76,0000.27,-000.07,-000.07,-000.25,0000.27,-000.10,0000.07,-000.03,26.0,00.0,0626.9,34.5
2016-01-26T00:34:00Z,0000380,01000600,0000.47,0000.34,-000.05,-000.64,-000.39,0000.20,-000.10,0000.01,0000.06,26.0,00.0,0626.9,34.5
2016-01-26T00:35:00Z,0000380,01000600,0000.55,0000.31,-000.10,0000.51,-000.13,-000.20,0000.04,-000.13,-000.34,26.0,00.0,0626.9,34.5
2016-01-26T00:36:00Z,0000380,01000600,-000.02,0000.49,0000.15,0000.66,-000.13,0000.08,0000.08,0000.15,0000.05,26.0,00.0,0626.9,34.5
2016-01-26T00:37:00Z,0000380,01000600,0000.05,0000.66,0000.01,0000.02,-000.30,0000.44,0000.16,0000.07,-000.12,26.0,00.0,0626.9,34.5
2016-01-26T00:38:00Z,0000380,01000600,-000.79,0000.50,0000.20,-000.15,-000.44,0000.00,-000.11,-000.00,0000.21,26.0,00.0,0626.9,34.5
2016-01-26T00:39:00Z,0000380,01000600,-000.19,-000.30,-000.26,0000.34,0000.15,-000.08,-000.02,-000.20,-000.13,26.0,00.0,0626.8,34.5
2016-01-26T00:40:00Z,0000380,01000600,0000.00,0000.11,-000.22,-000.61,0000.07,0000.15,0000.18,0000.16,0000.18,26.0,00.0,0626.8,34.5
2016-01-26T00:41:00Z,0000380,01000600,-000.35,0000.23,-000.33,0000.08,0000.22,0000.27,-000.16,0000.02,-000.31,26.0,00.0,0626.8,34.5
2016-01-26T00:42:00Z,0000380,01000600,0001.01,0001.31,-000.64,-000.03,0000.59,-000.08,0000.00,-000.02,0000.42,26.0,00.0,0626.8,34.5
2016-01-26T00:43:00Z,0000380,01000600,0000.37,-000.30,0000.13,0000.56,-000.30,0000.13,0000.16,-000.14,-000.21,26.0,00.0,0626.8,34.5
2016-01-26T00:44:00Z,0000380,01000600,0000.48,0000.10,-000.02,-000.25,0000.22,-000.05,0000.14,0000.19,0000.36,26.0,00.0,0626.8,34.5
2016-01-26T00:45:00Z,0000380,01000600,0000.33,0000.41,-000.26,0000.08,-000.34,0000.20,-000.06,-000.03,-000.23,26.0,00.0,0626.7,34.5
2016-01-26T00:46:00Z,0000380,01000600,0000.04,0000.35,-000.19,0000.32,-000.25,0000.08,0000.04,-000.12,-000.05,26.0,00.0,0626.8,34.5
2016-01-26T00:47:00Z,0000380,01000600,0000.72,-000.15,-000.07,-000.29,-000.22,0000.00,-000.07,0000.21,0000.21,26.0,00.0,0626.8,34.5
2016-01-26T00:48:00Z,0000380,01000600,-000.97,0000.05,-000.57,-000.66,-000.40,0000.08,0000.14,-000.00,-000.14,25.9,00.0,0626.7,34.5
2016-01-26T00:49:00Z,0000380,01000600,-000.79,0000.23,-000.17,-000.05,-000.50,0000.12,0000.02,0000.02,0000.03,25.9,00.0,0626.7,34.5
2016-01-26T00:50:00Z,0000380,01000600,-000.10,0000.21,-000.30,0000.15,-000.30,0000.24,-000.12,0000.01,-000.03,25.9,00.0,0626.7,34.5
2016-01-26T00:51:00Z,0000380,01000600,0000.25,0000.46,0000.00,0000.03,0000.07,-000.22,0000.11,0000.08,0000.03,25.9,00.0,0626.7,34.5
2016-01-26T00:52:00Z,0000380,01000600,-000.08,0000.44,-000.22,0000.12,0000.03,-000.08,0000.08,-000.05,0000.23,25.9,00.0,0626.6,34.5
2016-01-26T00:53:00Z,0000380,01000600,-000.48,0000.70,-000.15,-000.25,-000.07,-000.12,0000.06,0000.03,-000.57,25.9,00.0,0626.6,34.5
2016-01-26T00:54:00Z,0000380,01000600,0001.06,0000.10,0000.07,0000.25,0000.10,0000.05,0000.04,0000.16,0000.24,25.9,00.0,0626.6,34.5
2016-01-26T00:55:00Z,0000380,01000600,-000.23,-000.14,0000.03,-000.52,-000.07,0000.22,-000.12,-000.11,0000.36,25.8,00.0,0626.6,34.5
2016-01-26T00:56:00Z,0000380,01000600,0000.53,-000.22,0000.05,-000.29,-000.20,-000.02,0000.31,-000.01,-000.27,25.8,00.0,0626.6,34.5
2016-01-26T00:57:00Z,0000380,41000600,,,,,,,,,,,,0626.5,34.5
2016-01-26T00:58:00Z,0000380,61000600,,,,,,,,,,25.7,00.0,0625.8,34.5
2016-01-26T00:59:00Z,0000380,21000600,,,,,,,,,,25.7,00.0,0625.8,34.5
2016-01-26T01:00:00Z,0000380,21000600,,,,,,,,,,25.7,00.0,0625.8,34.5
2016-01-26T01:01:00Z,0000380,21000600,,,,,,,,,,25.7,00.0,0625.8,34.5
2016-01-26T01:02:00Z,0000380,21000600,,,,,,,,,,25.7,00.0,0625.8,34.5
2016-01-26T01:03:00Z,0000380,61000600,,,,,,,,,,25.7,00.0,0625.8,34.5
2016-01-26T01:04:00Z,0000380,41000600,0000.68,-000.36,-000.09,-000.37,0000.54,0000.02,-000.12,-000.14,0000.22,25.8,00.0,0626.4,34.5
2016-01-26T01:05:00Z,0000380,01000600,0000.66,0000.04,-000.09,-000.61,0000.12,0000.00,0000.04,0000.15,-000.09,25.8,00.0,0626.5,34.5
2016-01-26T01:06:00Z,0000380,01000600,0000.23,0000.51,-000.30,0000.34,-000.05,0000.17,0000.15,-000.08,-000.11,25.8,00.0,0626.5,34.5
2016-01-26T01:07:00Z,0000380,01000600,-000.27,-000.11,-000.30,-000.69,-000.03,0000.29,-000.02,0000.05,-000.27,25.8,00.0,0626.5,34.5
2016-01-26T01:08:00Z,0000380,01000600,0000.13,0000.10,-000.05,-000.19,0000.15,0000.17,0000.01,0000.08,0000.46,25.8,00.0,0626.4,34.5
2016-01-26T01:09:00Z,0000380,01000600,0000.19,-000.28,-000.26,0000.12,0000.20,-000.22,-000.07,-000.01,-000.03,25.8,00.0,0626.4,34.5
2016-01-26T01:10:00Z,0000380,01000600,-000.56,-000.47,-000.32,-000.30,0000.05,0000.03,-000.05,0000.12,-000.11,25.8,00.0,0626.5,34.5
2016-01-26T01:11:00Z,0000380,01000600,-000.54,0000.57,-000.24,0000.29,0000.20,-000.12,-000.07,0000.06,-000.03,25.8,00.0,0626.5,34.5
2016-01-26T01:12:00Z,0000380,01000600,-000.23,0000.42,-000.17,0000.32,0000.30,0000.00,0000.05,-000.15,-000.15,25.8,00.0,0626.5,34.5
2016-01-26T01:13:00Z,0000380,01000600,0000.50,-000.22,0000.16,-000.56,0000.47,0000.12,0000.20,0000.05,-000.10,25.7,00.0,0626.5,34.5
2016-01-26T01:14:00Z,0000380,01000600,-000.62,0000.15,0000.00,0000.08,-000.10,0000.07,-000.11,-000.09,0000.50,25.7,00.0,0626.5,34.5
2016-01-26T01:15:00Z,0000380,01000600,0000.30,-000.13,0000.88,0000.08,0000.32,0000.30,0000.03,0000.13,-000.15,25.7,00.0,0626.5,34.4
2016-01-26T01:16:00Z,0000380,01000600,0000.32,0000.38,0000.04,-000.22,0000.20,0000.00,-000.02,-000.07,-000.00,25.7,00.0,0626.5,34.4
2016-01-26T01:17:00Z,0000380,01000600,-000.07,0000.19,-000.11,-000.64,-000.02,0000.05,0000.08,-000.02,0000.21,25.7,00.0,0626.5,34.4
2016-01-26T01:18:00Z,0000380,01000600,0000.91,0000.03,-000.13,0000.25,-000.05,-000.25,-000.24,0000.19,-000.18,25.7,00.0,0626.5,34.4
2016-01-26T01:19:00Z,0000380,01000600,-000.61,-000.27,0000.27,-000.72,0000.05,0000.22,0000.29,-000.13,-000.15,25.7,00.0,0626.5,34.4
2016-01-26T01:20:00Z,0000380,01000600,0000.15,0000.08,0000.19,0000.08,0000.05,-000.12,-000.21,-000.01,0000.29,25.7,00.0,0626.5,34.4
2016-01-26T01:21:00Z,0000380,01000600,-000.48,-000.38,0000.07,0000.25,0000.35,0000.34,0000.07,0000.12,-000.03,25.7,00.0,0626.5,34.4
2016-01-26T01:22:00Z,0000380,01000600,-000.10,0000.42,-000.06,0000.19,-000.02,-000.22,-000.01,-000.11,-000.19,25.7,00.0,0626.5,34.4
2016-01-26T01:23:00Z,0000380,01000600,-001.18,-000.55,0000.50,0000.13,0000.05,0000.40,-000.01,-000.10,0000.10,25.7,00.0,0626.5,34.4
2016-01-26T01:24:00Z,0000380,01000600,-000.52,-000.23,-000.32,0000.39,-000.35,0000.00,0000.03,0000.24,-000.05,25.7,00.0,0626.5,34.4
2016-01-26T01:25:00Z,0000380,01000600,0000.23,-000.44,-000.02,0000.03,0000.07,-000.10,-000.09,-000.06,0000.06,25.7,00.0,0626.6,34.4
2016-01-26T01:26:00Z,0000380,01000600,0000.35,0000.57,-000.26,-000.29,-000.12,-000.15,0000.21,-000.03,-000.06,25.7,00.0,0626.5,34.4
2016-01-26T01:27:00Z,0000380,01000600,0000.27,-000.15,0000.31,-000.02,0000.05,0000.17,-000.07,0000.03,0000.27,25.7,00.0,0626.5,34.4
2016-01-26T01:28:00Z,0000380,01000600,0001.24,0000.04,-000.15,-000.29,0000.08,-000.10,0000.02,-000.00,-000.26,25.7,00.0,0626.6,34.4
2016-01-26T01:29:00Z,0000380,01000600,0000.80,0000.46,0000.29,0000.32,0000.05,0000.19,-000.08,-000.11,0000.09,25.7,00.0,0626.5,34.4
2016-01-26T01:30:00Z,0000380,01000600,-000.59,-000.17,-000.19,0000.20,0000.02,0000.00,-000.00,0000.12,0000.07,25.7,00.0,0626.6,34.4
2016-01-26T01:31:00Z,0000380,01000600,0000.28,0000.06,-000.12,0000.19,0000.10,0000.00,0000.05,-000.09,0000.00,25.7,00.0,0626.6,34.4
2016-01-26T01:32:00Z,0000380,01000600,0000.54,0000.10,-000.01,0000.15,0000.25,-000.02,0000.10,-000.02,-000.08,25.7,00.0,0626.6,34.4
2016-01-26T01:33:00Z,0000380,01000600,-000.25,-000.21,-000.13,0000.57,0000.02,0000.13,-000.14,0000.00,0000.10,25.7,00.0,0626.6,34.4
2016-01-26T01:34:00Z,0000380,01000600,0000.29,-000.06,0000.17,-000.56,0000.08,0000.30,0000.10,0000.04,0000.05,25.7,00.0,0626.6,34.4
2016-01-26T01:35:00Z,0000380,01000600,0000.74,0000.04,-000.22,0000.52,-000.39,0000.20,-000.00,0000.03,-000.25,25.7,00.0,0626.6,34.4
2016-01-26T01:36:00Z,0000380,01000600,0000.44,0000.13,-000.16,0000.05,0000.22,0000.39,-000.05,0000.06,0000.00,25.7,00.0,0626.6,34.4
2016-01-26T01:37:00Z,0000380,01000600,0000.52,0000.13,0000.00,-000.67,0000.08,0000.05,-000.15,-000.03,0000.07,25.7,00.0,0626.6,34.4
2016-01-26T01:38:00Z,0000380,01000600,0001.10,-000.27,0000.06,0000.05,0000.20,-000.17,-000.00,-000.10,0000.11,25.7,00.0,0626.6,34.4
2016-01-26T01:39:00Z,0000380,01000600,0000.75,-000.22,0000.26,-000.22,0000.02,0000.13,0000.18,0000.07,-000.18,25.7,00.0,0626.6,34.4
2016-01-26T01:40:00Z,0000380,01000600,0000.27,0000.05,0000.02,0000.05,0000.08,-000.10,-000.14,-000.00,-000.05,25.7,00.0,0626.6,34.4
2016-01-26T01:41:00Z,0000380,01000600,-000.60,-000.47,-000.22,-000.45,0000.45,0000.19,0000.06,-000.02,0000.09,25.7,00.0,0626.6,34.4
2016-01-26T01:42:00Z,0000380,01000600,0000.52,0000.11,-000.22,-000.29,0000.07,-000.07,-000.01,0000.01,0000.20,25.7,00.0,0626.6,34.4
2016-01-26T01:43:00Z,0000380,01000600,0000.23,-000.25,-000.32,-000.13,-000.15,-000.08,-000.20,0000.09,-000.15,25.7,00.0,0626.6,34.4
2016-01-26T01:44:00Z,0000380,01000600,0000.19,-000.42,0000.17,0000.42,0000.18,-000.08,-000.08,0000.02,0000.05,25.7,00.0,0626.6,34.4
2016-01-26T01:45:00Z,0000380,01000600,0000.52,-000.32,0000.09,-000.35,0000.47,0000.20,0000.12,-000.02,0000.12,25.7,00.0,0626.6,34.5
2016-01-26T01:46:00Z,0000380,01000600,0000.38,-000.37,0000.11,0000.42,-000.37,-000.34,-000.08,-000.09,-000.14,25.7,00.0,0626.6,34.5
2016-01-26T01:47:00Z,0000380,01000600,-000.79,-000.61,-000.43,0000.66,-000.03,-000.22,0000.04,-000.01,0000.08,25.7,00.0,0626.6,34.5
2016-01-26T01:48:00Z,0000380,01000600,-000.15,-000.06,-000.20,0000.30,-000.18,-000.17,-000.02,-000.01,-000.04,25.7,00.0,0626.6,34.5
2016-01-26T01:49:00Z,0000380,01000600,0000.58,-000.15,0000.06,0000.12,-000.07,0000.02,-000.07,-000.03,-000.28,25.7,00.0,0626.6,34.5
2016-01-26T01:50:00Z,0000380,01000600,0000.33,0000.13,0000.25,-000.37,0000.40,-000.05,0000.15,0000.02,0000.48,25.7,00.0,0626.6,34.5
2016-01-26T01:51:00Z,0000380,01000600,0000.27,-000.38,-000.26,0000.19,-000.17,-000.02,-000.03,0000.00,-000.24,25.7,00.0,0626.6,34.5
2016-01-26T01:52:00Z,0000380,01000600,0000.64,-000.13,0000.12,-000.32,-000.17,0000.10,0000.04,0000.13,0000.03,25.7,00.0,0626.6,34.5
2016-01-26T01:53:00Z,0000380,01000600,-000.66,0000.21,-000.28,-000.10,-000.13,-000.15,-000.11,-000.06,0000.00,25.7,00.0,0626.7,34.5
2016-01-26T01:54:00Z,0000380,01000600,0000.10,0000.24,0000.32,-000.39,-000.05,-000.15,-000.05,-000.05,-000.08,25.7,00.0,0626.6,34.5
2016-01-26T01:55:00Z,0000380,01000600,-001.10,0000.46,-000.24,0000.22,0000.59,-000.34,0000.16,0000.14,0000.24,25.7,00.0,0626.6,34.5
2016-01-26T01:56:00Z,0000380,01000600,-000.05,0000.06,0000.04,-000.32,-000.22,0000.17,-000.28,-000.10,-000.08,25.7,00.0,0626.6,34.5
2016-01-26T01:57:00Z,0000380,41000600,,,,,,,,,,,,0626.7,34.5
2016-01-26T01:58:00Z,0000380,61000600,,,,,,,,,,25.5,00.0,0625.9,34.5
2016-01-26T01:59:00Z,0000380,21000600,,,,,,,,,,25.5,00.0,0625.9,34.5
2016-01-26T02:00:00Z,0000380,21000600,,,,,,,,,,25.5,00.0,0625.9,34.4
2016-01-26T02:01:00Z,0000380,21000600,,,,,,,,,,25.5,00.0,0625.9,34.4
2016-01-26T02:02:00Z,0000380,21000600,,,,,,,,,,25.5,00.0,0625.9,34.4
2016-01-26T02:03:00Z,0000380,61000600,,,,,,,,,,25.5,00.0,0625.9,34.4
2016-01-26T02:04:00Z,0000380,41000600,0000.69,-000.15,0000.30,-000.50,-000.02,0000.13,0000.08,-000.16,-000.03,25.6,00.0,0626.6,34.4
2016-01-26T02:05:00Z,0000380,01000600,-000.92,0000.75,0000.07,0000.20,0000.23,0000.02,0000.03,0000.12,0000.12,25.6,00.0,0626.7,34.4
2016-01-26T02:06:00Z,0000380,01000600,0000.57,0000.11,-000.14,-000.40,0000.37,0000.13,-000.03,0000.06,-000.03,25.6,00.0,0626.7,34.4
2016-01-26T02:07:00Z,0000380,01000600,-000.51,0000.04,0000.32,-000.13,0000.07,-000.35,-000.02,-000.18,-000.09,25.6,00.0,0626.7,34.4
2016-01-26T02:08:00Z,0000380,01000600,0000.44,-000.04,0000.16,-000.15,0000.33,-000.05,0000.04,0000.02,-000.12,25.6,00.0,0626.7,34.4
2016-01-26T02:09:00Z,0000380,01000600,0000.09,-000.11,0000.17,0000.22,-000.27,-000.17,-000.02,0000.12,0000.33,25.5,00.0,0626.7,34.4
2016-01-26T02:10:00Z,0000380,01000600,0000.21,0000.18,-000.35,-000.59,0000.18,-000.32,0000.12,-000.23,-000.11,25.5,00.0,0626.7,34.4
2016-01-26T02:11:00Z,0000380,01000600,0000.61,-000.39,0000.13,-000.62,-000.27,0000.10,-000.13,0000.09,-000.25,25.5,00.0,0626.8,34.4
2016-01-26T02:12:00Z,0000380,01000600,-001.09,-000.02,0000.27,-000.55,-000.03,0000.32,-000.03,0000.04,0000.17,25.5,00.0,0626.8,34.4
2016-01-26T02:13:00Z,0000380,01000600,-000.56,-000.61,-000.07,-000.49,-000.28,0000.05,0000.11,-000.04,0000.25,25.6,00.0,0626.8,34.4
2016-01-26T02:14:00Z,0000380,01000600,-000.14,-000.15,0000.33,-000.44,-000.05,-000.05,-000.19,0000.07,-000.31,25.5,00.0,0626.8,34.4
2016-01-26T02:15:00Z,0000380,01000600,0000.61,-000.31,-000.04,0000.00,-000.42,0000.00,0000.14,0000.08,0000.33,25.6,00.0,0626.9,34.5
2016-01-26T02:16:00Z,0000380,01000600,0000.89,-000.21,-000.20,-000.10,-000.62,-000.12,-000.02,-000.08,-000.24,25.6,00.0,0626.9,34.5
2016-01-26T02:17:00Z,0000380,01000600,-000.66,-000.69,0000.14,-000.13,-000.40,-000.15,-000.20,-000.04,0000.06,25.6,00.0,0626.9,34.5
2016-01-26T02:18:00Z,0000380,01000600,-000.33,0000.13,-000.07,-000.18,-000.25,-000.08,0000.17,0000.15,0000.06,25.6,00.0,0626.9,34.5
2016-01-26T02:19:00Z,0000380,01000600,0000.28,-000.09,0000.38,0000.08,0000.02,-000.27,-000.01,-000.05,0000.03,25.6,00.0,0626.9,34.5
2016-01-26T02:20:00Z,0000380,01000600,0000.13,-000.59,0000.10,-000.15,-000.07,-000.24,-000.07,0000.03,-000.14,25.6,00.0,0626.9,34.5
2016-01-26T02:21:00Z,0000380,01000600,-000.93,-000.36,0000.50,-000.05,0000.08,0000.49,0000.16,0000.04,0000.15,25.7,00.0,0626.9,34.5
2016-01-26T02:22:00Z,0000380,01000600,-000.64,0000.59,0000.26,-000.35,0000.44,0000.03,0000.04,-000.08,-000.20,25.6,00.0,0626.9,34.5
2016-01-26T02:23:00Z,0000380,01000600,0000.06,-000.49,0000.11,0000.24,0000.07,0000.12,-000.18,0000.05,0000.35,25.6,00.0,0626.9,34.5
2016-01-26T02:24:00Z,0000380,01000600,0000.15,-000.61,-000.02,-000.42,-000.47,0000.10,-000.10,-000.09,-000.18,25.6,00.0,0626.9,34.5
2016-01-26T02:25:00Z,0000380,01000600,-000.52,0000.02,0000.33,-000.17,-000.23,0000.10,0000.36,-000.01,-000.13,25.6,00.0,0626.9,34.5
2016-01-26T02:26:00Z,0000380,01000600,0000.31,0000.11,0000.11,-000.59,0000.18,-000.12,-000.06,-000.06,0000.18,25.6,00.0,0626.9,34.5
2016-01-26T02:27:00Z,0000380,01000600,-000.14,0000.13,0000.74,-000.34,0000.30,0000.13,-000.03,0000.15,-000.30,25.6,00.0,0626.9,34.5
2016-01-26T02:28:00Z,0000380,01000600,-001.20,0000.23,-000.50,-000.24,0000.15,-000.42,-000.08,0000.11,0000.01,25.6,00.0,0626.9,34.5
2016-01-26T02:29:00Z,0000380,01000600,-000.19,0000.19,0000.18,-000.18,0000.23,0000.10,0000.21,-000.09,0000.25,25.6,00.0,0626.9,34.5
2016-01-26T02:30:00Z,0000380,01000600,0000.21,-000.53,-000.09,-000.05,-000.03,0000.03,-000.04,-000.02,0000.23,25.6,00.0,0627.0,34.5
2016-01-26T02:31:00Z,0000380,01000600,-000.19,0000.04,-000.17,-000.22,-000.27,0000.08,-000.17,0000.06,-000.32,25.7,00.0,0626.9,34.5
2016-01-26T02:32:00Z,0000380,01000600,0000.58,-000.32,0000.14,0000.02,-000.12,-000.03,0000.17,0000.05,0000.06,25.6,00.0,0626.9,34.5
2016-01-26T02:33:00Z,0000380,01000600,0000.02,-000.46,-000.46,-000.39,-000.33,0000.02,-000.05,-000.04,0000.12,25.6,00.0,0627.0,34.5
2016-01-26T02:34:00Z,0000380,01000600,-000.15,-000.13,0000.09,-000.24,-000.33,-000.25,-000.03,0000.05,-000.14,25.6,00.0,0627.0,34.5
2016-01-26T02:35:00Z,0000380,01000600,-000.35,0000.13,0000.22,0000.42,0000.07,-000.37,0000.01,0000.08,0000.05,25.6,00.0,0627.0,34.5
2016-01-26T02:36:00Z,0000380,01000600,0000.49,-000.58,-000.05,-000.61,-000.20,-000.17,0000.10,-000.17,0000.12,25.6,00.0,0627.0,34.5
2016-01-26T02:37:00Z,0000380,01000600,0000.21,0000.09,-000.07,-000.07,0000.35,0000.08,-000.14,0000.05,-000.22,25.6,00.0,0627.0,34.5
2016-01-26T02:38:00Z,0000380,01000600,0000.00,-000.63,-000.04,-000.59,0000.08,-000.05,0000.10,-000.18,0000.07,25.6,00.0,0626.9,34.5
2016-01-26T02:39:00Z,0000380,01000600,0000.46,0000.13,-000.02,0000.22,-000.02,0000.20,-000.05,0000.11,-000.02,25.6,00.0,0626.9,34.5
2016-01-26T02:40:00Z,0000380,01000600,-000.37,0000.38,-000.04,0000.24,-000.35,-000.12,0000.05,0000.08,0000.16,25.5,00.0,0626.9,34.5
2016-01-26T02:41:00Z,0000380,01000600,0001.35,-000.03,0000.27,-000.02,-000.37,-000.03,0000.06,0000.01,0000.02,25.5,00.0,0626.9,34.5
2016-01-26T02:42:00Z,0000380,01000600,0000.82,-000.92,0000.14,0000.20,0000.02,-000.32,0000.01,0000.05,0000.05,25.5,00.0,0626.9,34.5
2016-01-26T02:43:00Z,0000380,01000600,-000.88,-000.77,0000.39,-000.54,-000.20,0000.07,-000.10,-000.06,-000.23,25.5,00.0,0626.9,34.5
2016-01-26T02:44:00Z,0000380,01000600,0000.49,-000.16,0000.15,0000.13,0000.00,-000.05,0000.04,0000.02,0000.12,25.5,00.0,0626.9,34.5
2016-01-26T02:45:00Z,0000380,01000600,0000.39,-000.38,-000.48,-000.74,-000.03,-000.02,-000.22,-000.12,0000.10,25.5,00.0,0626.9,34.4
2016-01-26T02:46:00Z,0000380,01000600,-000.33,-000.08,-000.04,-000.60,0000.13,0000.00,0000.14,-000.01,0000.05,25.5,00.0,0627.0,34.4
2016-01-26T02:47:00Z,0000380,01000600,0000.21,0000.00,-000.48,-000.77,-000.05,-000.02,-000.02,0000.12,-000.32,25.5,00.0,0627.0,34.4
2016-01-26T02:48:00Z,0000380,01000600,-000.58,0000.09,0000.22,-000.49,-000.15,-000.03,0000.18,0000.04,0000.05,25.5,00.0,0627.0,34.4
2016-01-26T02:49:00Z,0000380,01000600,0000.99,-000.15,0000.24,-000.13,-000.15,0000.02,-000.37,-000.07,-000.11,25.5,00.0,0627.0,34.4
2016-01-26T02:50:00Z,0000380,01000600,-000.95,-000.74,-000.33,-000.08,0000.35,0000.00,0000.27,-000.00,0000.25,25.5,00.0,0627.0,34.4
2016-01-26T02:51:00Z,0000380,01000600,-000.15,-000.09,-000.24,-000.40,-000.28,-000.05,-000.02,-000.04,-000.11,25.5,00.0,0627.0,34.4
2016-01-26T02:52:00Z,0000380,01000600,-000.17,0000.15,0000.33,-000.81,-000.45,0000.25,0000.04,0000.05,0000.41,25.5,00.0,0627.0,34.4
2016-01-26T02:53:00Z,0000380,01000600,0000.70,0000.30,-000.09,-000.18,-000.12,-000.22,-000.08,-000.08,-000.28,25.5,00.0,0627.0,34.4
2016-01-26T02:54:00Z,0000380,01000600,0000.91,0000.45,-000.08,-000.30,-000.22,0000.32,0000.10,0000.29,0000.08,25.5,00.0,0627.0,34.4
2016-01-26T02:55:00Z,0000380,01000600,0000.02,0000.03,-000.05,-000.17,-000.17,-000.20,0000.06,-000.26,-000.07,25.5,00.0,0627.0,34.4
2016-01-26T02:56:00Z,0000380,01000600,0000.33,0000.17,0000.28,-000.49,0000.05,-000.12,-000.10,0000.01,-000.03,25.5,00.0,0627.0,34.4
2016-01-26T02:57:00Z,0000380,41000600,,,,,,,,,,,,0627.1,34.4
2016-01-26T02:58:00Z,0000380,61000600,,,,,,,,,,25.3,00.0,0626.3,34.4
2016-01-26T02:59:00Z,0000380,21000600,,,,,,,,,,25.3,00.0,0626.3,34.4
2016-01-26T03:00:00Z,0000380,21000600,,,,,,,,,,25.3,00.0,0626.3,34.4
2016-01-26T03:01:00Z,0000380,21000600,,,,,,,,,,25.3,00.0,0626.3,34.4
2016-01-26T03:02:00Z,0000380,21000600,,,,,,,,,,25.3,00.0,0626.3,34.4
2016-01-26T03:03:00Z,0000380,61000600,,,,,,,,,,25.3,00.0,0626.3,34.4
2016-01-26T03:04:00Z,0000380,41000600,0000.37,0000.50,0000.41,-000.30,-000.05,-000.44,-000.19,0000.11,0000.04,25.5,00.0,0627.0,34.4
2016-01-26T03:05:00Z,0000380,01000600,-001.49,0000.13,-000.32,0000.67,-000.12,0000.39,0000.28,-000.15,0000.01,25.5,00.0,0627.1,34.4
2016-01-26T03:06:00Z,0000380,01000600,0000.00,0000.45,0000.20,0000.00,-000.35,-000.40,-000.11,-000.03,0000.03,25.5,00.0,0627.1,34.4
2016-01-26T03:07:00Z,0000380,01000600,-000.38,0000.21,0000.24,-000.84,0000.07,0000.13,0000.02,0000.16,-000.08,25.5,00.0,0627.0,34.4
2016-01-26T03:08:00Z,0000380,01000600,0001.29,0001.03,0000.17,-000.66,0000.30,0000.12,-000.05,-000.13,-000.22,25.5,00.0,0627.0,34.4
2016-01-26T03:09:00Z,0000380,01000600,-000.28,0000.09,-000.20,-000.24,-000.05,-000.12,0000.13,0000.08,0000.15,25.5,00.0,0627.0,34.4
2016-01-26T03:10:00Z,0000380,01000600,0001.45,0000.44,0000.11,0000.17,0000.77,-000.02,0000.05,0000.07,0000.07,25.4,00.0,0627.0,34.4
2016-01-26T03:11:00Z,0000380,01000600,0000.17,0000.51,-000.39,0000.18,-000.08,-000.12,-000.20,0000.02,0000.02,25.4,00.0,0627.0,34.4
2016-01-26T03:12:00Z,0000380,01000600,0000.05,0000.42,0000.04,-000.22,0000.22,0000.13,0000.08,-000.04,0000.02,25.4,00.0,0627.0,34.4